Location: Karcze
(52.0945°N, 22.4786°E)
Time: 07:51:14
(UTC+00:00)

Vanguard 2 Rocket - All Passes

Search period start: 24 July 2021 00:00
Search period end: 03 August 2021 00:00
Orbit: 554 x 3325 km, 32.9° (Epoch: 23 July)

Date Brightness Start Highest point End Pass type
(mag) Time Alt. Az. Time Alt. Az. Time Alt. Az.
24 Jul - 09:26:39 10° SSW 09:29:55 15° SSE 09:34:02 10° SE daylight
24 Jul - 11:37:06 10° SW 11:42:09 18° S 11:49:01 10° SE daylight
24 Jul - 13:51:38 10° SW 13:55:17 12° SSW 13:59:30 10° S daylight
25 Jul - 10:38:29 10° SW 10:42:37 17° S 10:48:03 10° SE daylight
25 Jul - 12:51:19 10° SW 12:55:21 13° SSW 13:00:16 10° S daylight
26 Jul - 09:40:17 10° SSW 09:43:17 14° S 09:46:59 10° SE daylight
26 Jul - 11:51:53 10° SW 11:55:37 14° S 12:00:15 10° SSE daylight
27 Jul - 08:43:03 10° S 08:44:08 11° SSE 08:45:17 10° SSE daylight
27 Jul - 10:52:59 10° SSW 10:56:05 13° S 10:59:53 10° SSE daylight
28 Jul - 09:54:34 10° SSW 09:56:44 12° S 09:59:14 10° SSE daylight
